Time,TemperatureF,DewpointF,PressureIn,WindDirection,WindDirectionDegrees,WindSpeedMPH,WindSpeedGustMPH,Humidity,HourlyPrecipIn,Conditions,Clouds,dailyrainin,SolarRadiationWatts/m^2,SoftwareType,DateUTC
2013-03-06 00:01:00,49.5,45.8,29.96,WSW,248,0.0,0.0,87,0.00,CLR,,0.00,0.0,WeatherDisplay:10.37,2013-03-06 08:01:00,
2013-03-06 00:06:00,49.5,45.8,29.95,WSW,248,0.0,0.0,87,0.00,CLR,,0.00,0.0,WeatherDisplay:10.37,2013-03-06 08:06:00,
2013-03-06 00:11:00,49.5,45.8,29.95,WSW,248,0.0,0.0,87,0.00,CLR,,0.00,0.0,WeatherDisplay:10.37,2013-03-06 08:11:00,
2013-03-06 00:16:00,49.5,45.8,29.95,WSW,248,0.0,0.0,87,0.00,CLR,,0.00,0.0,WeatherDisplay:10.37,2013-03-06 08:16:00,
2013-03-06 00:21:00,49.6,45.9,29.95,WSW,248,0.0,0.0,87,0.00,CLR,,0.00,0.0,WeatherDisplay:10.37,2013-03-06 08:21:00,
2013-03-06 00:27:00,49.6,45.9,29.95,WSW,248,0.0,0.0,87,0.00,CLR,,0.00,0.0,WeatherDisplay:10.37,2013-03-06 08:27:00,
2013-03-06 00:32:00,49.8,46.1,29.95,WSW,248,0.0,0.0,87,0.00,CLR,,0.00,0.0,WeatherDisplay:10.37,2013-03-06 08:32:00,
2013-03-06 00:37:00,50.0,46.3,29.95,WSW,248,0.0,0.0,87,0.00,CLR,,0.00,0.0,WeatherDisplay:10.37,2013-03-06 08:37:00,
2013-03-06 00:42:00,50.2,46.5,29.95,WSW,248,0.0,0.0,87,0.00,CLR,,0.00,0.0,WeatherDisplay:10.37,2013-03-06 08:42:00,
2013-03-06 00:47:00,50.4,46.9,29.95,WSW,248,0.0,0.0,88,0.00,CLR,,0.00,0.0,WeatherDisplay:10.37,2013-03-06 08:47:00,
2013-03-06 00:52:00,50.5,47.1,29.95,WSW,248,0.0,0.0,88,0.00,CLR,,0.00,0.0,WeatherDisplay:10.37,2013-03-06 08:52:00,
2013-03-06 00:57:00,50.9,47.5,29.95,WSW,248,0.0,0.0,88,0.00,CLR,,0.00,0.0,WeatherDisplay:10.37,2013-03-06 08:57:00,
2013-03-06 01:02:00,51.3,47.8,29.95,WSW,248,0.0,0.0,88,0.00,CLR,,0.00,0.0,WeatherDisplay:10.37,2013-03-06 09:02:00,
2013-03-06 01:07:00,51.1,47.6,29.94,WSW,248,0.0,0.0,88,0.00,CLR,,0.00,0.0,WeatherDisplay:10.37,2013-03-06 09:07:00,
2013-03-06 01:12:00,51.3,47.8,29.94,WSW,248,0.0,0.0,88,0.00,CLR,,0.00,0.0,WeatherDisplay:10.37,2013-03-06 09:12:00,
2013-03-06 01:17:00,51.3,47.8,29.94,WSW,248,0.0,0.0,88,0.00,CLR,,0.00,0.0,WeatherDisplay:10.37,2013-03-06 09:17:00,
2013-03-06 01:22:00,51.3,47.8,29.94,WSW,248,0.0,0.0,88,0.00,CLR,,0.00,0.0,WeatherDisplay:10.37,2013-03-06 09:22:00,
2013-03-06 01:27:00,51.3,47.8,29.93,WSW,248,0.0,0.0,88,0.00,CLR,,0.00,0.0,WeatherDisplay:10.37,2013-03-06 09:27:00,
2013-03-06 01:33:00,51.6,48.2,29.93,WSW,248,0.0,0.0,88,0.00,CLR,,0.00,0.0,WeatherDisplay:10.37,2013-03-06 09:33:00,
2013-03-06 01:38:00,51.6,48.2,29.93,WSW,248,0.0,0.0,88,0.00,CLR,,0.00,0.0,WeatherDisplay:10.37,2013-03-06 09:38:00,
2013-03-06 01:43:00,51.4,48.0,29.93,WSW,248,0.0,0.0,88,0.00,CLR,,0.00,0.0,WeatherDisplay:10.37,2013-03-06 09:43:00,
2013-03-06 01:48:00,51.6,48.2,29.94,WSW,248,0.0,0.0,88,0.00,CLR,,0.00,0.0,WeatherDisplay:10.37,2013-03-06 09:48:00,
2013-03-06 01:53:00,51.4,48.3,29.94,WSW,248,0.0,0.0,89,0.00,CLR,,0.00,0.0,WeatherDisplay:10.37,2013-03-06 09:53:00,
2013-03-06 01:58:00,51.4,48.3,29.94,WSW,248,0.0,0.0,89,0.00,CLR,,0.00,0.0,WeatherDisplay:10.37,2013-03-06 09:58:00,
2013-03-06 02:04:00,51.6,48.5,29.94,WSW,248,0.0,0.0,89,0.00,CLR,,0.00,0.0,WeatherDisplay:10.37,2013-03-06 10:04:00,
2013-03-06 02:09:00,51.4,48.3,29.93,WSW,248,0.0,0.0,89,0.00,CLR,,0.00,0.0,WeatherDisplay:10.37,2013-03-06 10:09:00,
2013-03-06 02:14:00,51.4,48.3,29.93,WSW,248,0.0,0.0,89,0.00,CLR,,0.00,0.0,WeatherDisplay:10.37,2013-03-06 10:14:00,
2013-03-06 02:19:00,51.4,48.3,29.93,WSW,248,0.0,0.0,89,0.00,CLR,,0.00,0.0,WeatherDisplay:10.37,2013-03-06 10:19:00,
2013-03-06 02:24:00,51.3,48.1,29.93,WSW,248,0.0,0.0,89,0.00,CLR,,0.00,0.0,WeatherDisplay:10.37,2013-03-06 10:24:00,
2013-03-06 02:29:00,51.3,48.1,29.94,WSW,248,0.0,0.0,89,0.00,CLR,,0.00,0.0,WeatherDisplay:10.37,2013-03-06 10:29:00,
2013-03-06 02:34:00,51.3,48.4,29.94,WSW,248,0.0,0.0,90,0.00,CLR,,0.00,0.0,WeatherDisplay:10.37,2013-03-06 10:34:00,
2013-03-06 02:40:00,51.3,48.4,29.94,WSW,248,0.0,0.0,90,0.00,CLR,,0.00,0.0,WeatherDisplay:10.37,2013-03-06 10:40:00,
2013-03-06 02:45:00,51.3,48.4,29.94,WSW,248,0.0,0.0,90,0.00,CLR,,0.00,0.0,WeatherDisplay:10.37,2013-03-06 10:45:00,
2013-03-06 02:50:00,51.6,48.8,29.94,WSW,248,0.0,0.0,90,0.00,CLR,,0.00,0.0,WeatherDisplay:10.37,2013-03-06 10:50:00,
2013-03-06 02:55:00,51.6,48.8,29.94,WSW,248,0.0,0.0,90,0.00,CLR,,0.00,0.0,WeatherDisplay:10.37,2013-03-06 10:55:00,
2013-03-06 03:00:00,51.6,48.8,29.94,WSW,248,0.0,0.0,90,0.00,CLR,,0.00,0.0,WeatherDisplay:10.37,2013-03-06 11:00:00,
2013-03-06 03:06:00,51.6,48.8,29.94,WSW,248,0.0,0.0,90,0.00,CLR,,0.00,0.0,WeatherDisplay:10.37,2013-03-06 11:06:00,
2013-03-06 03:11:00,51.6,48.8,29.94,WSW,248,0.0,0.0,90,0.00,CLR,,0.00,0.0,WeatherDisplay:10.37,2013-03-06 11:11:00,
2013-03-06 03:16:00,51.4,48.6,29.94,WSW,248,0.0,0.0,90,0.00,CLR,,0.00,0.0,WeatherDisplay:10.37,2013-03-06 11:16:00,
2013-03-06 03:21:00,51.6,48.8,29.94,WSW,248,0.0,0.0,90,0.00,CLR,,0.00,0.0,WeatherDisplay:10.37,2013-03-06 11:21:00,
2013-03-06 03:26:00,52.0,49.4,29.94,WSW,248,0.0,0.0,91,0.00,CLR,,0.00,0.0,WeatherDisplay:10.37,2013-03-06 11:26:00,
2013-03-06 03:31:00,52.0,49.4,29.94,WSW,248,0.0,0.0,91,0.00,CLR,,0.00,0.0,WeatherDisplay:10.37,2013-03-06 11:31:00,
2013-03-06 03:37:00,51.8,49.3,29.94,WSW,248,0.0,0.0,91,0.00,CLR,,0.00,0.0,WeatherDisplay:10.37,2013-03-06 11:37:00,
2013-03-06 03:42:00,52.0,49.4,29.94,WSW,248,0.0,0.0,91,0.00,CLR,,0.00,0.0,WeatherDisplay:10.37,2013-03-06 11:42:00,
2013-03-06 03:47:00,52.0,49.4,29.94,WSW,248,0.0,0.0,91,0.00,CLR,,0.00,0.0,WeatherDisplay:10.37,2013-03-06 11:47:00,
2013-03-06 03:52:00,52.0,49.4,29.94,WSW,248,0.0,0.0,91,0.00,CLR,,0.00,0.0,WeatherDisplay:10.37,2013-03-06 11:52:00,
2013-03-06 03:57:00,52.2,49.6,29.94,WSW,248,0.0,0.0,91,0.00,CLR,,0.00,0.0,WeatherDisplay:10.37,2013-03-06 11:57:00,
2013-03-06 04:02:00,52.2,49.6,29.94,WSW,248,0.0,0.0,91,0.00,CLR,,0.00,0.0,WeatherDisplay:10.37,2013-03-06 12:02:00,
2013-03-06 04:07:00,52.3,49.8,29.94,WSW,248,0.0,0.0,91,0.00,CLR,,0.00,0.0,WeatherDisplay:10.37,2013-03-06 12:07:00,
2013-03-06 04:12:00,52.7,50.1,29.94,WSW,248,0.0,0.0,91,0.00,CLR,,0.00,0.0,WeatherDisplay:10.37,2013-03-06 12:12:00,
2013-03-06 04:17:00,52.7,50.1,29.94,WSW,248,0.0,0.0,91,0.00,CLR,,0.00,0.0,WeatherDisplay:10.37,2013-03-06 12:17:00,
2013-03-06 04:22:00,52.7,50.1,29.94,WSW,248,0.0,0.0,91,0.00,CLR,,0.00,0.0,WeatherDisplay:10.37,2013-03-06 12:22:00,
2013-03-06 04:27:00,52.5,50.0,29.95,WSW,248,0.0,0.0,91,0.00,CLR,,0.00,0.0,WeatherDisplay:10.37,2013-03-06 12:27:00,
2013-03-06 04:32:00,52.7,50.1,29.95,WSW,248,0.0,0.0,91,0.00,CLR,,0.00,0.0,WeatherDisplay:10.37,2013-03-06 12:32:00,
2013-03-06 04:38:00,52.7,50.1,29.95,WSW,248,0.0,0.0,91,0.00,CLR,,0.00,0.0,WeatherDisplay:10.37,2013-03-06 12:38:00,
2013-03-06 04:43:00,52.3,49.5,29.95,WSW,248,0.0,0.0,90,0.00,CLR,,0.00,0.0,WeatherDisplay:10.37,2013-03-06 12:43:00,
2013-03-06 04:48:00,52.2,49.3,29.95,WSW,248,0.0,0.0,90,0.00,CLR,,0.00,0.0,WeatherDisplay:10.37,2013-03-06 12:48:00,
2013-03-06 04:53:00,52.2,49.3,29.95,WSW,248,0.0,0.0,90,0.00,CLR,,0.00,0.0,WeatherDisplay:10.37,2013-03-06 12:53:00,
2013-03-06 04:58:00,52.2,49.3,29.95,WSW,248,0.0,0.0,90,0.00,CLR,,0.00,0.0,WeatherDisplay:10.37,2013-03-06 12:58:00,
2013-03-06 05:04:00,52.2,49.3,29.95,WSW,248,0.0,0.0,90,0.00,CLR,,0.00,0.0,WeatherDisplay:10.37,2013-03-06 13:04:00,
2013-03-06 05:09:00,52.2,49.3,29.96,WSW,248,0.0,0.0,90,0.00,CLR,,0.00,0.0,WeatherDisplay:10.37,2013-03-06 13:09:00,
2013-03-06 05:14:00,52.0,49.1,29.96,WSW,248,0.0,0.0,90,0.00,CLR,,0.00,0.0,WeatherDisplay:10.37,2013-03-06 13:14:00,
2013-03-06 05:19:00,51.8,49.0,29.96,WSW,248,0.0,0.0,90,0.00,CLR,,0.00,0.0,WeatherDisplay:10.37,2013-03-06 13:19:00,
2013-03-06 05:24:00,51.8,48.7,29.96,WSW,248,0.0,0.0,89,0.00,CLR,,0.00,0.0,WeatherDisplay:10.37,2013-03-06 13:24:00,
2013-03-06 05:29:00,51.6,48.5,29.97,WSW,248,0.0,0.0,89,0.00,CLR,,0.00,0.0,WeatherDisplay:10.37,2013-03-06 13:29:00,
2013-03-06 05:35:00,51.4,48.3,29.97,WSW,248,0.0,0.0,89,0.00,CLR,,0.00,0.0,WeatherDisplay:10.37,2013-03-06 13:35:00,
2013-03-06 05:40:00,51.3,48.1,29.97,WSW,248,0.0,0.0,89,0.00,CLR,,0.00,0.0,WeatherDisplay:10.37,2013-03-06 13:40:00,
2013-03-06 05:45:00,51.3,48.1,29.97,WSW,248,0.0,0.0,89,0.00,CLR,,0.00,0.0,WeatherDisplay:10.37,2013-03-06 13:45:00,
2013-03-06 05:50:00,51.1,48.0,29.97,WSW,248,0.0,0.0,89,0.00,CLR,,0.00,0.0,WeatherDisplay:10.37,2013-03-06 13:50:00,
2013-03-06 05:55:00,51.3,48.1,29.97,WSW,248,0.0,0.0,89,0.00,CLR,,0.00,0.0,WeatherDisplay:10.37,2013-03-06 13:55:00,
2013-03-06 06:00:00,50.9,47.8,29.97,WSW,248,0.0,0.0,89,0.00,CLR,,0.00,0.0,WeatherDisplay:10.37,2013-03-06 14:00:00,
2013-03-06 06:05:00,50.9,47.8,29.97,WSW,248,0.0,0.0,89,0.00,OVC,,0.00,0.0,WeatherDisplay:10.37,2013-03-06 14:05:00,
2013-03-06 06:11:00,50.9,47.8,29.99,WSW,248,0.0,0.0,89,0.00,OVC,,0.00,0.0,WeatherDisplay:10.37,2013-03-06 14:11:00,
2013-03-06 06:16:00,50.7,47.6,29.99,WSW,248,0.0,0.0,89,0.00,OVC,,0.00,0.0,WeatherDisplay:10.37,2013-03-06 14:16:00,
2013-03-06 06:21:00,50.7,47.6,29.99,WSW,248,0.0,0.0,89,0.00,OVC,,0.00,0.0,WeatherDisplay:10.37,2013-03-06 14:21:00,
2013-03-06 06:26:00,50.5,47.1,29.98,WSW,248,0.0,0.0,88,0.00,OVC,,0.00,0.0,WeatherDisplay:10.37,2013-03-06 14:26:00,
2013-03-06 06:31:00,50.4,46.9,29.98,WSW,248,0.0,0.0,88,0.00,OVC,,0.00,0.0,WeatherDisplay:10.37,2013-03-06 14:31:00,
2013-03-06 06:37:00,50.5,47.4,29.98,WSW,248,0.0,0.0,89,0.00,OVC,,0.00,0.0,WeatherDisplay:10.37,2013-03-06 14:37:00,
2013-03-06 06:42:00,50.5,47.1,29.98,WSW,248,0.0,0.0,88,0.00,OVC,,0.00,0.0,WeatherDisplay:10.37,2013-03-06 14:42:00,
2013-03-06 06:48:00,50.5,47.4,29.99,WSW,248,0.0,0.0,89,0.00,OVC,,0.00,0.0,WeatherDisplay:10.37,2013-03-06 14:48:00,
2013-03-06 06:53:00,50.2,46.8,29.99,WSW,248,0.0,0.0,88,0.00,OVC,,0.00,0.0,WeatherDisplay:10.37,2013-03-06 14:53:00,
2013-03-06 06:58:00,50.0,46.6,29.99,WSW,248,0.0,0.0,88,0.00,OVC,,0.00,0.0,WeatherDisplay:10.37,2013-03-06 14:58:00,
2013-03-06 07:03:00,50.2,46.8,29.99,WSW,248,0.0,0.0,88,0.00,OVC,,0.00,0.0,WeatherDisplay:10.37,2013-03-06 15:03:00,
2013-03-06 07:08:00,50.0,46.6,30.01,WSW,248,0.0,0.0,88,0.00,OVC,,0.00,0.0,WeatherDisplay:10.37,2013-03-06 15:08:00,
2013-03-06 07:14:00,50.0,46.6,30.01,WSW,248,0.0,0.0,88,0.00,OVC,,0.00,0.0,WeatherDisplay:10.37,2013-03-06 15:14:00,
2013-03-06 07:19:00,49.8,46.4,30.01,WSW,248,0.0,0.0,88,0.00,OVC,,0.00,0.0,WeatherDisplay:10.37,2013-03-06 15:19:00,
2013-03-06 07:24:00,50.0,46.6,30.01,WSW,248,0.0,0.0,88,0.00,OVC,,0.00,0.0,WeatherDisplay:10.37,2013-03-06 15:24:00,
2013-03-06 07:29:00,50.0,46.6,30.02,WSW,248,0.0,0.0,88,0.00,OVC,,0.00,0.0,WeatherDisplay:10.37,2013-03-06 15:29:00,
2013-03-06 07:34:00,50.2,46.8,30.02,WSW,248,0.0,0.0,88,0.00,OVC,,0.00,0.0,WeatherDisplay:10.37,2013-03-06 15:34:00,
2013-03-06 07:39:00,50.2,46.8,30.02,WSW,248,0.0,0.0,88,0.00,OVC,,0.00,0.0,WeatherDisplay:10.37,2013-03-06 15:39:00,
2013-03-06 07:44:00,50.5,47.1,30.02,WSW,248,0.0,0.0,88,0.00,OVC,,0.00,0.0,WeatherDisplay:10.37,2013-03-06 15:44:00,
2013-03-06 07:49:00,50.7,47.6,30.03,WSW,248,0.0,0.0,89,0.00,OVC,,0.00,0.0,WeatherDisplay:10.37,2013-03-06 15:49:00,
2013-03-06 07:54:00,50.7,47.3,30.03,WSW,248,0.0,0.0,88,0.00,OVC,,0.00,0.0,WeatherDisplay:10.37,2013-03-06 15:54:00,
2013-03-06 07:59:00,50.9,47.8,30.03,WSW,248,0.0,0.0,89,0.00,OVC,,0.00,0.0,WeatherDisplay:10.37,2013-03-06 15:59:00,
2013-03-06 08:04:00,51.4,48.3,30.03,WSW,248,0.0,0.0,89,0.00,OVC,,0.00,0.0,WeatherDisplay:10.37,2013-03-06 16:04:00,
2013-03-06 08:09:00,51.4,48.0,30.04,WSW,248,0.0,0.0,88,0.00,OVC,,0.00,0.0,WeatherDisplay:10.37,2013-03-06 16:09:00,
2013-03-06 08:14:00,51.6,48.2,30.04,WSW,248,0.0,0.0,88,0.00,OVC,,0.00,0.0,WeatherDisplay:10.37,2013-03-06 16:14:00,
2013-03-06 08:20:00,52.0,48.5,30.04,WSW,248,0.0,0.0,88,0.00,OVC,,0.00,0.0,WeatherDisplay:10.37,2013-03-06 16:20:00,
2013-03-06 08:25:00,52.3,48.6,30.04,WSW,248,0.0,0.0,87,0.00,OVC,,0.00,0.0,WeatherDisplay:10.37,2013-03-06 16:25:00,
2013-03-06 08:30:00,52.3,48.6,30.05,WSW,248,0.0,0.0,87,0.00,OVC,,0.00,0.0,WeatherDisplay:10.37,2013-03-06 16:30:00,
2013-03-06 08:35:00,52.7,48.9,30.05,WSW,248,0.0,0.0,87,0.00,OVC,,0.00,0.0,WeatherDisplay:10.37,2013-03-06 16:35:00,
2013-03-06 08:40:00,52.7,48.9,30.05,WSW,248,0.0,0.0,87,0.00,OVC,,0.00,0.0,WeatherDisplay:10.37,2013-03-06 16:40:00,
2013-03-06 08:45:00,52.5,48.8,30.05,WSW,248,0.0,0.0,87,0.00,OVC,,0.00,0.0,WeatherDisplay:10.37,2013-03-06 16:45:00,
2013-03-06 08:50:00,52.7,48.9,30.06,WSW,248,0.0,0.0,87,0.00,OVC,,0.00,0.0,WeatherDisplay:10.37,2013-03-06 16:50:00,
2013-03-06 08:55:00,52.9,48.8,30.06,WSW,248,0.0,0.0,86,0.00,OVC,,0.00,0.0,WeatherDisplay:10.37,2013-03-06 16:55:00,
2013-03-06 09:01:00,53.2,49.2,30.06,WSW,248,0.0,0.0,86,0.00,OVC,,0.00,0.0,WeatherDisplay:10.37,2013-03-06 17:01:00,
2013-03-06 09:06:00,53.2,48.8,30.06,WSW,248,0.0,0.0,85,0.00,OVC,,0.00,0.0,WeatherDisplay:10.37,2013-03-06 17:06:00,
2013-03-06 09:11:00,53.8,49.7,30.08,WSW,248,0.0,0.0,86,0.00,OVC,,0.00,0.0,WeatherDisplay:10.37,2013-03-06 17:11:00,
2013-03-06 09:16:00,54.1,49.7,30.08,WSW,248,0.0,0.0,85,0.00,OVC,,0.00,0.0,WeatherDisplay:10.37,2013-03-06 17:16:00,
2013-03-06 09:21:00,54.1,49.7,30.08,WSW,248,0.0,0.0,85,0.00,OVC,,0.00,0.0,WeatherDisplay:10.37,2013-03-06 17:21:00,
2013-03-06 09:26:00,54.5,50.1,30.08,WSW,248,0.0,0.0,85,0.00,OVC,,0.00,0.0,WeatherDisplay:10.37,2013-03-06 17:26:00,
2013-03-06 09:31:00,54.9,50.4,30.08,WSW,248,0.0,0.0,85,0.00,OVC,,0.00,0.0,WeatherDisplay:10.37,2013-03-06 17:31:00,
2013-03-06 09:36:00,55.0,50.6,30.08,WSW,248,0.0,0.0,85,0.00,OVC,,0.00,0.0,WeatherDisplay:10.37,2013-03-06 17:36:00,
2013-03-06 09:42:00,55.6,51.1,30.08,WSW,248,0.0,0.0,85,0.00,OVC,,0.00,0.0,WeatherDisplay:10.37,2013-03-06 17:42:00,
2013-03-06 09:47:00,55.8,51.0,30.08,WSW,248,0.0,0.0,84,0.00,OVC,,0.00,0.0,WeatherDisplay:10.37,2013-03-06 17:47:00,
2013-03-06 09:53:00,55.8,50.7,30.08,WSW,248,0.0,0.0,83,0.00,OVC,,0.00,0.0,WeatherDisplay:10.37,2013-03-06 17:53:00,
2013-03-06 09:58:00,56.3,51.2,30.08,WSW,248,0.0,0.0,83,0.00,OVC,,0.00,0.0,WeatherDisplay:10.37,2013-03-06 17:58:00,
2013-03-06 10:03:00,56.5,51.1,30.08,WSW,248,0.0,0.0,82,0.00,OVC,,0.00,0.0,WeatherDisplay:10.37,2013-03-06 18:03:00,
2013-03-06 10:08:00,56.7,51.2,30.08,WSW,248,0.0,0.0,82,0.00,OVC,,0.00,0.0,WeatherDisplay:10.37,2013-03-06 18:08:00,
2013-03-06 10:13:00,57.0,51.2,30.08,WSW,248,0.0,0.0,81,0.00,OVC,,0.00,0.0,WeatherDisplay:10.37,2013-03-06 18:13:00,
2013-03-06 10:18:00,57.0,51.2,30.08,WSW,248,0.0,0.0,81,0.00,OVC,,0.00,0.0,WeatherDisplay:10.37,2013-03-06 18:18:00,
2013-03-06 10:23:00,57.2,51.1,30.08,WSW,248,0.0,0.0,80,0.00,OVC,,0.00,0.0,WeatherDisplay:10.37,2013-03-06 18:23:00,
2013-03-06 10:28:00,57.4,50.9,30.09,WSW,248,0.0,0.0,79,0.00,OVC,,0.00,0.0,WeatherDisplay:10.37,2013-03-06 18:28:00,
2013-03-06 10:33:00,57.4,50.9,30.09,WSW,248,0.0,0.0,79,0.00,OVC,,0.00,0.0,WeatherDisplay:10.37,2013-03-06 18:33:00,
2013-03-06 10:38:00,57.4,50.6,30.09,WSW,248,0.0,0.0,78,0.00,OVC,,0.00,0.0,WeatherDisplay:10.37,2013-03-06 18:38:00,
2013-03-06 10:44:00,57.7,50.9,30.09,WSW,248,0.0,0.0,78,0.00,OVC,,0.00,0.0,WeatherDisplay:10.37,2013-03-06 18:44:00,
2013-03-06 10:49:00,58.1,50.9,30.09,WSW,248,0.0,0.0,77,0.00,OVC,,0.00,0.0,WeatherDisplay:10.37,2013-03-06 18:49:00,
2013-03-06 10:54:00,58.1,50.9,30.09,WSW,248,0.0,0.0,77,0.00,OVC,,0.00,0.0,WeatherDisplay:10.37,2013-03-06 18:54:00,
2013-03-06 10:59:00,58.1,50.6,30.09,WSW,248,0.0,0.0,76,0.00,OVC,,0.00,0.0,WeatherDisplay:10.37,2013-03-06 18:59:00,
2013-03-06 11:04:00,57.9,50.4,30.09,WSW,248,0.0,0.0,76,0.00,OVC,,0.00,0.0,WeatherDisplay:10.37,2013-03-06 19:04:00,
2013-03-06 11:09:00,57.9,50.0,30.10,WSW,248,0.0,0.0,75,0.00,OVC,,0.00,0.0,WeatherDisplay:10.37,2013-03-06 19:09:00,
2013-03-06 11:14:00,57.9,50.4,30.10,WSW,248,0.0,0.0,76,0.00,OVC,,0.00,0.0,WeatherDisplay:10.37,2013-03-06 19:14:00,
2013-03-06 11:19:00,58.5,50.9,30.10,WSW,248,0.0,0.0,76,0.00,OVC,,0.00,0.0,WeatherDisplay:10.37,2013-03-06 19:19:00,
2013-03-06 11:25:00,58.8,50.9,30.10,WSW,248,0.0,0.0,75,0.00,OVC,,0.00,0.0,WeatherDisplay:10.37,2013-03-06 19:25:00,
2013-03-06 11:30:00,59.0,51.1,30.09,WSW,248,0.0,0.0,75,0.00,OVC,,0.00,0.0,WeatherDisplay:10.37,2013-03-06 19:30:00,
2013-03-06 11:35:00,59.4,51.1,30.09,WSW,248,0.0,0.0,74,0.00,OVC,,0.00,0.0,WeatherDisplay:10.37,2013-03-06 19:35:00,
2013-03-06 11:40:00,59.4,50.7,30.09,WSW,248,0.0,0.0,73,0.00,OVC,,0.00,0.0,WeatherDisplay:10.37,2013-03-06 19:40:00,
2013-03-06 11:45:00,59.5,50.5,30.09,WSW,248,0.0,0.0,72,0.00,OVC,,0.00,0.0,WeatherDisplay:10.37,2013-03-06 19:45:00,
2013-03-06 11:50:00,59.5,50.5,30.08,WSW,248,0.0,0.0,72,0.00,OVC,,0.00,0.0,WeatherDisplay:10.37,2013-03-06 19:50:00,
2013-03-06 11:55:00,59.5,50.1,30.08,WSW,248,0.0,0.0,71,0.00,OVC,,0.00,0.0,WeatherDisplay:10.37,2013-03-06 19:55:00,
2013-03-06 12:00:00,59.5,50.1,30.08,WSW,248,0.0,0.0,71,0.00,OVC,,0.00,0.0,WeatherDisplay:10.37,2013-03-06 20:00:00,
2013-03-06 12:05:00,59.5,50.1,30.08,WSW,248,0.0,0.0,71,0.00,OVC,,0.00,0.0,WeatherDisplay:10.37,2013-03-06 20:05:00,
2013-03-06 12:10:00,59.5,50.1,30.10,WSW,248,0.0,0.0,71,0.00,OVC,,0.00,0.0,WeatherDisplay:10.37,2013-03-06 20:10:00,
2013-03-06 12:16:00,59.5,50.1,30.10,WSW,248,0.0,0.0,71,0.00,OVC,,0.00,0.0,WeatherDisplay:10.37,2013-03-06 20:16:00,
2013-03-06 12:21:00,59.4,50.3,30.10,WSW,248,0.0,0.0,72,0.00,OVC,,0.00,0.0,WeatherDisplay:10.37,2013-03-06 20:21:00,
2013-03-06 12:26:00,59.9,50.8,30.08,WSW,248,0.0,0.0,72,0.00,OVC,,0.00,0.0,WeatherDisplay:10.37,2013-03-06 20:26:00,
2013-03-06 12:32:00,59.7,50.3,30.08,WSW,248,0.0,0.0,71,0.00,OVC,,0.00,0.0,WeatherDisplay:10.37,2013-03-06 20:32:00,
2013-03-06 12:37:00,59.5,49.7,30.08,WSW,248,0.0,0.0,70,0.00,OVC,,0.00,0.0,WeatherDisplay:10.37,2013-03-06 20:37:00,
2013-03-06 12:42:00,59.5,49.7,30.08,WSW,248,0.0,0.0,70,0.00,OVC,,0.00,0.0,WeatherDisplay:10.37,2013-03-06 20:42:00,
2013-03-06 12:47:00,59.4,49.2,30.08,WSW,248,0.0,0.0,69,0.00,OVC,,0.00,0.0,WeatherDisplay:10.37,2013-03-06 20:47:00,
2013-03-06 12:52:00,59.5,49.7,30.08,WSW,248,0.0,0.0,70,0.00,OVC,,0.00,0.0,WeatherDisplay:10.37,2013-03-06 20:52:00,
2013-03-06 12:58:00,59.9,50.1,30.08,WSW,248,0.0,0.0,70,0.00,OVC,,0.00,0.0,WeatherDisplay:10.37,2013-03-06 20:58:00,
2013-03-06 13:03:00,59.9,50.1,30.08,WSW,248,0.0,0.0,70,0.00,OVC,,0.00,0.0,WeatherDisplay:10.37,2013-03-06 21:03:00,
2013-03-06 13:08:00,60.3,50.0,30.08,WSW,248,0.0,0.0,69,0.00,OVC,,0.00,0.0,WeatherDisplay:10.37,2013-03-06 21:08:00,
2013-03-06 13:14:00,60.3,50.0,30.08,WSW,248,0.0,0.0,69,0.00,OVC,,0.00,0.0,WeatherDisplay:10.37,2013-03-06 21:14:00,
2013-03-06 13:19:00,60.6,50.0,30.08,WSW,248,0.0,0.0,68,0.00,OVC,,0.00,0.0,WeatherDisplay:10.37,2013-03-06 21:19:00,
2013-03-06 13:24:00,60.6,50.4,30.08,WSW,248,0.0,0.0,69,0.00,OVC,,0.00,0.0,WeatherDisplay:10.37,2013-03-06 21:24:00,
2013-03-06 13:29:00,60.8,50.2,30.07,WSW,248,0.0,0.0,68,0.00,OVC,,0.00,0.0,WeatherDisplay:10.37,2013-03-06 21:29:00,
2013-03-06 13:35:00,60.6,49.6,30.07,WSW,248,0.0,0.0,67,0.00,OVC,,0.00,0.0,WeatherDisplay:10.37,2013-03-06 21:35:00,
2013-03-06 13:40:00,60.3,49.7,30.07,WSW,248,0.0,0.0,68,0.00,OVC,,0.00,0.0,WeatherDisplay:10.37,2013-03-06 21:40:00,
2013-03-06 13:45:00,60.1,49.5,30.07,WSW,248,0.0,0.0,68,0.00,OVC,,0.00,0.0,WeatherDisplay:10.37,2013-03-06 21:45:00,
2013-03-06 13:50:00,60.1,49.5,30.07,WSW,248,0.0,0.0,68,0.00,OVC,,0.00,0.0,WeatherDisplay:10.37,2013-03-06 21:50:00,
2013-03-06 13:55:00,59.7,49.1,30.07,WSW,248,0.0,0.0,68,0.00,OVC,,0.00,0.0,WeatherDisplay:10.37,2013-03-06 21:55:00,
2013-03-06 14:01:00,59.9,49.3,30.07,WSW,248,0.0,0.0,68,0.00,OVC,,0.00,0.0,WeatherDisplay:10.37,2013-03-06 22:01:00,
2013-03-06 14:06:00,59.4,48.8,30.07,WSW,248,0.0,0.0,68,0.00,OVC,,0.00,0.0,WeatherDisplay:10.37,2013-03-06 22:06:00,
2013-03-06 14:11:00,59.4,48.8,30.07,WSW,248,0.0,0.0,68,0.00,OVC,,0.00,0.0,WeatherDisplay:10.37,2013-03-06 22:11:00,
2013-03-06 14:16:00,59.2,48.6,30.07,WSW,248,0.0,0.0,68,0.00,OVC,,0.00,0.0,WeatherDisplay:10.37,2013-03-06 22:16:00,
2013-03-06 14:21:00,59.0,48.8,30.07,WSW,248,0.0,0.0,69,0.00,OVC,,0.00,0.0,WeatherDisplay:10.37,2013-03-06 22:21:00,
2013-03-06 14:26:00,58.8,48.7,30.07,WSW,248,0.0,0.0,69,0.00,OVC,,0.00,0.0,WeatherDisplay:10.37,2013-03-06 22:26:00,
2013-03-06 14:31:00,58.6,48.5,30.07,WSW,248,0.0,0.0,69,0.00,OVC,,0.00,0.0,WeatherDisplay:10.37,2013-03-06 22:31:00,
2013-03-06 14:36:00,58.6,48.5,30.07,WSW,248,0.0,0.0,69,0.00,OVC,,0.00,0.0,WeatherDisplay:10.37,2013-03-06 22:36:00,
2013-03-06 14:41:00,58.5,48.3,30.07,WSW,248,0.0,0.0,69,0.00,OVC,,0.00,0.0,WeatherDisplay:10.37,2013-03-06 22:41:00,
2013-03-06 14:46:00,58.5,49.1,30.06,WSW,248,0.0,0.0,71,0.00,OVC,,0.00,0.0,WeatherDisplay:10.37,2013-03-06 22:46:00,
2013-03-06 14:52:00,58.5,48.7,30.06,WSW,248,0.0,0.0,70,0.00,OVC,,0.00,0.0,WeatherDisplay:10.37,2013-03-06 22:52:00,
2013-03-06 14:57:00,58.3,48.9,30.06,WSW,248,0.0,0.0,71,0.00,OVC,,0.00,0.0,WeatherDisplay:10.37,2013-03-06 22:57:00,
2013-03-06 15:02:00,58.1,48.7,30.06,WSW,248,0.0,0.0,71,0.00,OVC,,0.00,0.0,WeatherDisplay:10.37,2013-03-06 23:02:00,
2013-03-06 15:07:00,58.1,48.7,30.06,WSW,248,0.0,0.0,71,0.00,OVC,,0.00,0.0,WeatherDisplay:10.37,2013-03-06 23:07:00,
2013-03-06 15:13:00,57.7,48.8,30.06,WSW,248,0.0,0.0,72,0.00,OVC,,0.00,0.0,WeatherDisplay:10.37,2013-03-06 23:13:00,
2013-03-06 15:18:00,57.7,48.8,30.06,WSW,248,0.0,0.0,72,0.00,OVC,,0.00,0.0,WeatherDisplay:10.37,2013-03-06 23:18:00,
2013-03-06 15:23:00,57.7,48.8,30.06,WSW,248,0.0,0.0,72,0.00,OVC,,0.00,0.0,WeatherDisplay:10.37,2013-03-06 23:23:00,
2013-03-06 15:28:00,57.7,49.1,30.07,WSW,248,0.0,0.0,73,0.00,OVC,,0.00,0.0,WeatherDisplay:10.37,2013-03-06 23:28:00,
2013-03-06 15:33:00,57.4,48.8,30.07,WSW,248,0.0,0.0,73,0.00,OVC,,0.00,0.0,WeatherDisplay:10.37,2013-03-06 23:33:00,
2013-03-06 15:38:00,57.2,49.0,30.07,WSW,248,0.0,0.0,74,0.00,OVC,,0.00,0.0,WeatherDisplay:10.37,2013-03-06 23:38:00,
2013-03-06 15:43:00,57.2,49.0,30.07,WSW,248,0.0,0.0,74,0.00,OVC,,0.00,0.0,WeatherDisplay:10.37,2013-03-06 23:43:00,
2013-03-06 15:49:00,57.4,49.2,30.06,WSW,248,0.0,0.0,74,0.00,OVC,,0.00,0.0,WeatherDisplay:10.37,2013-03-06 23:49:00,
2013-03-06 15:54:00,57.0,48.4,30.06,WSW,248,0.0,0.0,73,0.00,OVC,,0.00,0.0,WeatherDisplay:10.37,2013-03-06 23:54:00,
2013-03-06 15:59:00,56.5,48.3,30.06,WSW,248,0.0,0.0,74,0.00,OVC,,0.00,0.0,WeatherDisplay:10.37,2013-03-06 23:59:00,
2013-03-06 16:04:00,56.3,48.1,30.06,WSW,248,0.0,0.0,74,0.00,OVC,,0.00,0.0,WeatherDisplay:10.37,2013-03-07 00:04:00,
2013-03-06 16:09:00,56.1,48.3,30.06,WSW,248,0.0,0.0,75,0.00,OVC,,0.00,0.0,WeatherDisplay:10.37,2013-03-07 00:09:00,
2013-03-06 16:14:00,56.1,48.3,30.06,WSW,248,0.0,0.0,75,0.00,OVC,,0.00,0.0,WeatherDisplay:10.37,2013-03-07 00:14:00,
2013-03-06 16:20:00,56.3,48.8,30.06,WSW,248,0.0,0.0,76,0.00,OVC,,0.00,0.0,WeatherDisplay:10.37,2013-03-07 00:20:00,
2013-03-06 16:25:00,56.3,48.8,30.06,WSW,248,0.0,0.0,76,0.00,OVC,,0.00,0.0,WeatherDisplay:10.37,2013-03-07 00:25:00,
2013-03-06 16:30:00,55.9,48.5,30.06,WSW,248,0.0,0.0,76,0.00,OVC,,0.00,0.0,WeatherDisplay:10.37,2013-03-07 00:30:00,
2013-03-06 16:35:00,55.9,48.5,30.06,WSW,248,0.0,0.0,76,0.00,OVC,,0.00,0.0,WeatherDisplay:10.37,2013-03-07 00:35:00,
2013-03-06 16:40:00,55.9,48.5,30.06,WSW,248,0.0,0.0,76,0.00,OVC,,0.00,0.0,WeatherDisplay:10.37,2013-03-07 00:40:00,
2013-03-06 16:45:00,55.6,48.1,30.06,WSW,248,0.0,0.0,76,0.00,OVC,,0.00,0.0,WeatherDisplay:10.37,2013-03-07 00:45:00,
2013-03-06 16:50:00,55.2,47.8,30.06,WSW,248,0.0,0.0,76,0.00,OVC,,0.00,0.0,WeatherDisplay:10.37,2013-03-07 00:50:00,
2013-03-06 16:56:00,55.6,48.1,30.06,WSW,248,0.0,0.0,76,0.00,OVC,,0.00,0.0,WeatherDisplay:10.37,2013-03-07 00:56:00,
2013-03-06 17:01:00,55.2,47.8,30.06,WSW,248,0.0,0.0,76,0.00,OVC,,0.00,0.0,WeatherDisplay:10.37,2013-03-07 01:01:00,
2013-03-06 17:06:00,55.0,47.6,30.06,WSW,248,0.0,0.0,76,0.00,OVC,,0.00,0.0,WeatherDisplay:10.37,2013-03-07 01:06:00,
2013-03-06 17:11:00,54.9,47.4,30.05,WSW,248,0.0,0.0,76,0.00,OVC,,0.00,0.0,WeatherDisplay:10.37,2013-03-07 01:11:00,
2013-03-06 17:16:00,54.7,47.3,30.05,WSW,248,0.0,0.0,76,0.00,OVC,,0.00,0.0,WeatherDisplay:10.37,2013-03-07 01:16:00,
2013-03-06 17:21:00,54.7,47.6,30.05,WSW,248,0.0,0.0,77,0.00,OVC,,0.00,0.0,WeatherDisplay:10.37,2013-03-07 01:21:00,
2013-03-06 17:26:00,54.5,47.4,30.05,WSW,248,0.0,0.0,77,0.00,OVC,,0.00,0.0,WeatherDisplay:10.37,2013-03-07 01:26:00,
2013-03-06 17:32:00,54.5,47.1,30.05,WSW,248,0.0,0.0,76,0.00,OVC,,0.00,0.0,WeatherDisplay:10.37,2013-03-07 01:32:00,
2013-03-06 17:37:00,54.5,47.1,30.05,WSW,248,0.0,0.0,76,0.00,OVC,,0.00,0.0,WeatherDisplay:10.37,2013-03-07 01:37:00,
2013-03-06 17:42:00,54.1,46.7,30.05,WSW,248,0.0,0.0,76,0.00,OVC,,0.00,0.0,WeatherDisplay:10.37,2013-03-07 01:42:00,
2013-03-06 17:47:00,54.0,46.9,30.05,WSW,248,0.0,0.0,77,0.00,OVC,,0.00,0.0,WeatherDisplay:10.37,2013-03-07 01:47:00,
2013-03-06 17:52:00,54.1,47.1,30.05,WSW,248,0.0,0.0,77,0.00,OVC,,0.00,0.0,WeatherDisplay:10.37,2013-03-07 01:52:00,
2013-03-06 17:58:00,53.6,46.6,30.05,WSW,248,0.0,0.0,77,0.00,OVC,,0.00,0.0,WeatherDisplay:10.37,2013-03-07 01:58:00,
2013-03-06 18:03:00,53.8,46.7,30.05,WSW,248,0.0,0.0,77,0.00,OVC,,0.00,0.0,WeatherDisplay:10.37,2013-03-07 02:03:00,
2013-03-06 18:08:00,53.8,46.7,30.03,WSW,248,0.0,0.0,77,0.00,OVC,,0.00,0.0,WeatherDisplay:10.37,2013-03-07 02:08:00,
2013-03-06 18:13:00,53.8,46.7,30.03,WSW,248,0.0,0.0,77,0.00,OVC,,0.00,0.0,WeatherDisplay:10.37,2013-03-07 02:13:00,
2013-03-06 18:18:00,53.6,46.9,30.03,WSW,248,0.0,0.0,78,0.00,OVC,,0.00,0.0,WeatherDisplay:10.37,2013-03-07 02:18:00,
2013-03-06 18:24:00,53.6,46.6,30.03,WSW,248,0.0,0.0,77,0.00,OVC,,0.00,0.0,WeatherDisplay:10.37,2013-03-07 02:24:00,
2013-03-06 18:29:00,53.4,46.7,30.03,WSW,248,0.0,0.0,78,0.00,OVC,,0.00,0.0,WeatherDisplay:10.37,2013-03-07 02:29:00,
2013-03-06 18:34:00,53.4,46.7,30.03,WSW,248,0.0,0.0,78,0.00,OVC,,0.00,0.0,WeatherDisplay:10.37,2013-03-07 02:34:00,
2013-03-06 18:40:00,53.4,46.7,30.03,WSW,248,0.0,0.0,78,0.00,CLR,,0.00,0.0,WeatherDisplay:10.37,2013-03-07 02:40:00,
2013-03-06 18:45:00,53.1,46.4,30.03,WSW,248,0.0,0.0,78,0.00,CLR,,0.00,0.0,WeatherDisplay:10.37,2013-03-07 02:45:00,
2013-03-06 18:50:00,53.1,46.7,30.03,WSW,248,0.0,0.0,79,0.00,CLR,,0.00,0.0,WeatherDisplay:10.37,2013-03-07 02:50:00,
2013-03-06 18:55:00,52.9,46.5,30.03,WSW,248,0.0,0.0,79,0.00,CLR,,0.00,0.0,WeatherDisplay:10.37,2013-03-07 02:55:00,
2013-03-06 19:00:00,52.9,46.5,30.03,WSW,248,0.0,0.0,79,0.00,CLR,,0.00,0.0,WeatherDisplay:10.37,2013-03-07 03:00:00,
2013-03-06 19:05:00,52.7,46.4,30.03,WSW,248,0.0,0.0,79,0.00,CLR,,0.00,0.0,WeatherDisplay:10.37,2013-03-07 03:05:00,
2013-03-06 19:11:00,52.7,46.7,30.03,WSW,248,0.0,0.0,80,0.00,CLR,,0.00,0.0,WeatherDisplay:10.37,2013-03-07 03:11:00,
2013-03-06 19:16:00,52.3,46.4,30.03,WSW,248,0.0,0.0,80,0.00,CLR,,0.00,0.0,WeatherDisplay:10.37,2013-03-07 03:16:00,
2013-03-06 19:21:00,52.2,46.2,30.03,WSW,248,0.0,0.0,80,0.00,CLR,,0.00,0.0,WeatherDisplay:10.37,2013-03-07 03:21:00,
2013-03-06 19:26:00,52.2,46.2,30.03,WSW,248,0.0,0.0,80,0.00,CLR,,0.00,0.0,WeatherDisplay:10.37,2013-03-07 03:26:00,
2013-03-06 19:32:00,52.2,46.2,30.03,WSW,248,0.0,0.0,80,0.00,CLR,,0.00,0.0,WeatherDisplay:10.37,2013-03-07 03:32:00,
2013-03-06 19:37:00,52.0,46.0,30.03,WSW,248,0.0,0.0,80,0.00,CLR,,0.00,0.0,WeatherDisplay:10.37,2013-03-07 03:37:00,
2013-03-06 19:42:00,52.0,46.3,30.03,WSW,248,0.0,0.0,81,0.00,CLR,,0.00,0.0,WeatherDisplay:10.37,2013-03-07 03:42:00,
2013-03-06 19:47:00,51.6,46.0,30.03,WSW,248,0.0,0.0,81,0.00,CLR,,0.00,0.0,WeatherDisplay:10.37,2013-03-07 03:47:00,
2013-03-06 19:52:00,51.4,45.8,30.03,WSW,248,0.0,0.0,81,0.00,CLR,,0.00,0.0,WeatherDisplay:10.37,2013-03-07 03:52:00,
2013-03-06 19:57:00,51.4,45.8,30.03,WSW,248,0.0,0.0,81,0.00,CLR,,0.00,0.0,WeatherDisplay:10.37,2013-03-07 03:57:00,
2013-03-06 20:02:00,51.1,45.5,30.03,WSW,248,0.0,0.0,81,0.00,CLR,,0.00,0.0,WeatherDisplay:10.37,2013-03-07 04:02:00,
2013-03-06 20:07:00,50.9,45.6,30.04,WSW,248,0.0,0.0,82,0.00,CLR,,0.00,0.0,WeatherDisplay:10.37,2013-03-07 04:07:00,
2013-03-06 20:12:00,50.7,45.4,30.04,WSW,248,0.0,0.0,82,0.00,CLR,,0.00,0.0,WeatherDisplay:10.37,2013-03-07 04:12:00,
2013-03-06 20:18:00,50.7,45.4,30.04,WSW,248,0.0,0.0,82,0.00,CLR,,0.00,0.0,WeatherDisplay:10.37,2013-03-07 04:18:00,
2013-03-06 20:23:00,50.4,45.1,30.04,WSW,248,0.0,0.0,82,0.00,CLR,,0.00,0.0,WeatherDisplay:10.37,2013-03-07 04:23:00,
2013-03-06 20:28:00,50.2,44.9,30.03,WSW,248,0.0,0.0,82,0.00,CLR,,0.00,0.0,WeatherDisplay:10.37,2013-03-07 04:28:00,
2013-03-06 20:33:00,50.0,44.7,30.03,WSW,248,0.0,0.0,82,0.00,CLR,,0.00,0.0,WeatherDisplay:10.37,2013-03-07 04:33:00,
2013-03-06 20:38:00,50.0,44.7,30.03,WSW,248,0.0,0.0,82,0.00,CLR,,0.00,0.0,WeatherDisplay:10.37,2013-03-07 04:38:00,
2013-03-06 20:43:00,50.0,44.7,30.03,WSW,248,0.0,0.0,82,0.00,CLR,,0.00,0.0,WeatherDisplay:10.37,2013-03-07 04:43:00,
2013-03-06 20:48:00,49.8,44.5,30.03,WSW,248,0.0,0.0,82,0.00,CLR,,0.00,0.0,WeatherDisplay:10.37,2013-03-07 04:48:00,
2013-03-06 20:53:00,49.8,44.9,30.03,WSW,248,0.0,0.0,83,0.00,CLR,,0.00,0.0,WeatherDisplay:10.37,2013-03-07 04:53:00,
2013-03-06 20:59:00,49.5,44.5,30.03,WSW,248,0.0,0.0,83,0.00,CLR,,0.00,0.0,WeatherDisplay:10.37,2013-03-07 04:59:00,
2013-03-06 21:00:00,49.5,44.5,30.03,WSW,248,0.0,0.0,83,0.00,CLR,,0.00,0.0,WeatherDisplay:10.37,2013-03-07 05:00:00,
2013-03-06 21:01:00,49.5,44.5,30.03,WSW,248,0.0,0.0,83,0.00,CLR,,0.00,0.0,WeatherDisplay:10.37,2013-03-07 05:01:00,
2013-03-06 21:02:00,49.5,44.5,30.03,WSW,248,0.0,0.0,83,0.00,CLR,,0.00,0.0,WeatherDisplay:10.37,2013-03-07 05:02:00,
2013-03-06 21:07:00,49.3,44.3,30.03,WSW,248,0.0,0.0,83,0.00,CLR,,0.00,0.0,WeatherDisplay:10.37,2013-03-07 05:07:00,
2013-03-06 21:12:00,49.1,44.2,30.03,WSW,248,0.0,0.0,83,0.00,CLR,,0.00,0.0,WeatherDisplay:10.37,2013-03-07 05:12:00,
2013-03-06 21:17:00,48.9,44.0,30.03,WSW,248,0.0,0.0,83,0.00,CLR,,0.00,0.0,WeatherDisplay:10.37,2013-03-07 05:17:00,
2013-03-06 21:22:00,49.1,44.5,30.03,WSW,248,0.0,0.0,84,0.00,CLR,,0.00,0.0,WeatherDisplay:10.37,2013-03-07 05:22:00,
2013-03-06 21:27:00,48.9,44.3,30.03,WSW,248,0.0,0.0,84,0.00,CLR,,0.00,0.0,WeatherDisplay:10.37,2013-03-07 05:27:00,
2013-03-06 21:32:00,48.7,43.8,30.03,WSW,248,0.0,0.0,83,0.00,CLR,,0.00,0.0,WeatherDisplay:10.37,2013-03-07 05:32:00,
2013-03-06 21:37:00,48.7,44.1,30.03,WSW,248,0.0,0.0,84,0.00,CLR,,0.00,0.0,WeatherDisplay:10.37,2013-03-07 05:37:00,
2013-03-06 21:42:00,48.7,44.1,30.03,WSW,248,0.0,0.0,84,0.00,CLR,,0.00,0.0,WeatherDisplay:10.37,2013-03-07 05:42:00,
2013-03-06 21:48:00,48.6,43.9,30.03,WSW,248,0.0,0.0,84,0.00,CLR,,0.00,0.0,WeatherDisplay:10.37,2013-03-07 05:48:00,
2013-03-06 21:53:00,48.6,43.6,30.03,WSW,248,0.0,0.0,83,0.00,CLR,,0.00,0.0,WeatherDisplay:10.37,2013-03-07 05:53:00,
2013-03-06 21:58:00,48.6,43.9,30.03,WSW,248,0.0,0.0,84,0.00,CLR,,0.00,0.0,WeatherDisplay:10.37,2013-03-07 05:58:00,
2013-03-06 22:03:00,48.4,43.8,30.03,WSW,248,0.0,0.0,84,0.00,CLR,,0.00,0.0,WeatherDisplay:10.37,2013-03-07 06:03:00,
2013-03-06 22:08:00,48.4,43.8,30.03,WSW,248,0.0,0.0,84,0.00,CLR,,0.00,0.0,WeatherDisplay:10.37,2013-03-07 06:08:00,
2013-03-06 22:13:00,48.2,43.6,30.03,WSW,248,0.0,0.0,84,0.00,CLR,,0.00,0.0,WeatherDisplay:10.37,2013-03-07 06:13:00,
2013-03-06 22:18:00,48.0,43.4,30.03,WSW,248,0.0,0.0,84,0.00,CLR,,0.00,0.0,WeatherDisplay:10.37,2013-03-07 06:18:00,
2013-03-06 22:23:00,47.8,43.2,30.03,WSW,248,0.0,0.0,84,0.00,CLR,,0.00,0.0,WeatherDisplay:10.37,2013-03-07 06:23:00,
2013-03-06 22:28:00,47.8,43.2,30.03,WSW,248,0.0,0.0,84,0.00,CLR,,0.00,0.0,WeatherDisplay:10.37,2013-03-07 06:28:00,
2013-03-06 22:34:00,47.7,43.1,30.03,WSW,248,0.0,0.0,84,0.00,CLR,,0.00,0.0,WeatherDisplay:10.37,2013-03-07 06:34:00,
2013-03-06 22:39:00,47.7,43.1,30.03,WSW,248,0.0,0.0,84,0.00,CLR,,0.00,0.0,WeatherDisplay:10.37,2013-03-07 06:39:00,
2013-03-06 22:44:00,47.7,43.1,30.03,WSW,248,0.0,0.0,84,0.00,CLR,,0.00,0.0,WeatherDisplay:10.37,2013-03-07 06:44:00,
2013-03-06 22:49:00,47.3,42.7,30.03,WSW,248,0.0,0.0,84,0.00,CLR,,0.00,0.0,WeatherDisplay:10.37,2013-03-07 06:49:00,
2013-03-06 22:54:00,47.3,42.7,30.03,WSW,248,0.0,0.0,84,0.00,CLR,,0.00,0.0,WeatherDisplay:10.37,2013-03-07 06:54:00,
2013-03-06 22:59:00,47.1,42.5,30.03,WSW,248,0.0,0.0,84,0.00,CLR,,0.00,0.0,WeatherDisplay:10.37,2013-03-07 06:59:00,
2013-03-06 23:04:00,47.1,42.5,30.03,WSW,248,0.0,0.0,84,0.00,CLR,,0.00,0.0,WeatherDisplay:10.37,2013-03-07 07:04:00,
2013-03-06 23:10:00,46.9,42.4,30.02,WSW,248,0.0,0.0,84,0.00,CLR,,0.00,0.0,WeatherDisplay:10.37,2013-03-07 07:10:00,
2013-03-06 23:15:00,46.9,42.4,30.02,WSW,248,0.0,0.0,84,0.00,CLR,,0.00,0.0,WeatherDisplay:10.37,2013-03-07 07:15:00,
2013-03-06 23:20:00,46.9,42.7,30.02,WSW,248,0.0,0.0,85,0.00,CLR,,0.00,0.0,WeatherDisplay:10.37,2013-03-07 07:20:00,
2013-03-06 23:26:00,46.9,42.7,30.02,WSW,248,0.0,0.0,85,0.00,CLR,,0.00,0.0,WeatherDisplay:10.37,2013-03-07 07:26:00,
2013-03-06 23:31:00,46.9,42.7,30.01,WSW,248,0.0,0.0,85,0.00,CLR,,0.00,0.0,WeatherDisplay:10.37,2013-03-07 07:31:00,
2013-03-06 23:36:00,46.9,42.7,30.01,WSW,248,0.0,0.0,85,0.00,CLR,,0.00,0.0,WeatherDisplay:10.37,2013-03-07 07:36:00,
2013-03-06 23:41:00,46.6,42.3,30.01,WSW,248,0.0,0.0,85,0.00,CLR,,0.00,0.0,WeatherDisplay:10.37,2013-03-07 07:41:00,
2013-03-06 23:46:00,46.4,42.1,30.01,WSW,248,0.0,0.0,85,0.00,CLR,,0.00,0.0,WeatherDisplay:10.37,2013-03-07 07:46:00,
2013-03-06 23:51:00,46.4,42.1,30.01,WSW,248,0.0,0.0,85,0.00,CLR,,0.00,0.0,WeatherDisplay:10.37,2013-03-07 07:51:00,
2013-03-06 23:56:00,46.2,42.0,30.01,WSW,248,0.0,0.0,85,0.00,CLR,,0.00,0.0,WeatherDisplay:10.37,2013-03-07 07:56:00,